61P/Shajn-Schaldach (2022)

Japanese version
Home page
Updated on November 3, 2020

---------------------------------------------------------------------

* Profile

* Orbital Elements

Epoch 2022 Oct. 28.0 TT = JDT 2459880.5
T 2022 Oct. 23.79889 TT                                 MPCW
q   2.1258201            (2000.0)            P               Q
n   0.13897221     Peri.  221.65204     +0.90802865     -0.41778786
a   3.6913402      Node   162.96740     +0.40665078     +0.86155281
e   0.4241061      Incl.    5.99941     +0.10059385     +0.28840952
P   7.09
From 791 observations 2000 Apr. 22-2015 Aug. 25, mean residual 0".8.
     Nongravitational parameters A1 = +0.62, A2 = -0.2627.

* Finding Charts

* Magnitudes Graph

        m1 = 11.5 + 5 log d + 10.0 log r(t + 65)

---------------------------------------------------------------------

The orbital elements are published on M.P.E.C. 2015-Q71.
The charts are made with StellaNavigator Ver.10 (AstroArts).
The magnitudes graphs are made with Comet for Windows.

---------------------------------------------------------------------

Copyright(C) Seiichi Yoshida (comet@aerith.net). All rights reserved.